Miscellaneous Local Product
Issued by NWS Hastings, NE

Home | Current Version | Previous Version | Graphics & Text | Print | Product List | Glossary On
Versions: 1 2 3 4 5 6 7 8 9 10 11 12 13 14 15 16 17 18 19 20 21 22 23 24 25 26 27 28 29 30 31 32 33 34 35 36 37 38 39 40 41 42 43 44 45 46 47 48 49 50
763
AXUS43 KGID 191802
MISGRI

GID CWA HOURLY WEATHER ROUNDUP
NATIONAL WEATHER SERVICE HASTINGS NE
1200 PM CST FRI JAN 19 2018

NOTE: "FAIR" INDICATES FEW OR NO CLOUDS BELOW 12,000 FEET WITH NO
SIGNIFICANT WEATHER AND/OR OBSTRUCTIONS TO VISIBILITY.

...SOUTH CENTRAL NEBRASKA...

CITY           SKY/WX    TMP DP  RH WIND       PRES   REMARKS
GRAND ISLAND   CLOUDY    43  29  57 SW9       29.70F
KEARNEY        CLOUDY    42  29  59 SW10      29.70F
HASTINGS       CLOUDY    45  26  47 SW8       29.71F
ORD            CLOUDY    50  35  56 CALM      29.63F
YORK           CLOUDY    45  28  53 SW12      29.71F
AURORA         CLOUDY    45  28  52 SW10      29.71F
LEXINGTON      CLOUDY    41  32  69 W5        29.70F
HOLDREGE       CLOUDY    45  27  49 SW6       29.71F
HEBRON         CLOUDY    43  27  52 S9        29.76F

...NEBRASKA PANHANDLE...

CITY           SKY/WX    TMP DP  RH WIND       PRES   REMARKS
CHADRON        CLOUDY    52  29  41 NE12      29.69R
ALLIANCE       CLOUDY    41  33  73 CALM      29.71F
SCOTTSBLUFF    CLOUDY    37  30  75 CALM      29.74F
SIDNEY         CLOUDY    50  25  37 N7        29.75F

...WESTERN AND NORTH CENTRAL NEBRASKA...

CITY           SKY/WX    TMP DP  RH WIND       PRES   REMARKS
VALENTINE      CLOUDY    59  31  34 W14G26    29.64R
AINSWORTH      CLOUDY    53  33  46 W12       29.62F
ONEILL         CLOUDY    49  32  51 SW10      29.61F
BROKEN BOW     CLOUDY    46  28  49 SW6       29.66F
IMPERIAL       CLOUDY    46  24  42 NW3       29.70F
NORTH PLATTE   CLOUDY    42  31  64 NW8       29.71F
MCCOOK         CLOUDY    44  24  45 W5        29.70F

...EASTERN NEBRASKA...

CITY           SKY/WX    TMP DP  RH WIND       PRES   REMARKS
NORFOLK        CLOUDY    48  32  53 S8        29.62F
SO SIOUX CITY  CLOUDY    45  30  55 SE5       29.63F
TEKAMAH        CLOUDY    46  27  47 S17       29.68F
COLUMBUS       CLOUDY    46  26  45 S10       29.68F
ALBION         CLOUDY    52  31  45 CALM      29.66F
OMAHA EPPLEY   CLOUDY    42  27  55 S13       29.73F
OFFUTT AFB     CLOUDY    40  27  58 S9        29.73F WCI  35
MILLARD        CLOUDY    46  28  49 S8        29.73F
LINCOLN        CLOUDY    48  24  39 SW15      29.73F
NEBRASKA CITY  CLOUDY    41  29  62 SW16      29.75F
BEATRICE       CLOUDY    40  29  64 S14       29.77F WCI  32
FALLS CITY     CLOUDY    44  25  47 S15       29.81F

...NORTHERN KANSAS...

CITY           SKY/WX    TMP DP  RH WIND       PRES   REMARKS
GOODLAND       PTSUNNY   65  16  15 SW17G25   29.72F
HILL CITY      CLOUDY    54  20  26 S6        29.72F
NORTON         CLEAR     54  16  22 CALM      29.70F
PHILLIPSBURG   SUNNY     46  19  34 SE5       29.73F
SMITH CENTER     N/A     43  18  36 S7        29.75F
BELOIT         SUNNY     45  19  36 S15       29.78F
HAYS           CLOUDY    46  18  32 S10       29.77F
RUSSELL        CLOUDY    50  20  30 S17       29.76F
CONCORDIA      CLOUDY    43  25  49 S13       29.78F
SALINA         CLOUDY    43  26  51 S12       29.84F
TOPEKA         CLOUDY    41  24  51 S16       29.89F



USA.gov is the U.S. government's official web portal to all federal, state and local government web resources and services.